Tracking 18840 objects as of 20-November-2017
HD Live streaming from Space Station
objects crossing your sky now

COSMOS 1830

Track COSMOS 1830 now!
10-day predictions
COSMOS 1830 is classified as:


NORAD ID: 17585
Int'l Code: 1987-026D
Perigee: 1,411.4 km
Apogee: 1,419.8 km
Inclination: 82.6 °
Period: 114.0 minutes
Semi major axis: 7786 km
RCS: 1.0862 m2 (large)
Launch date: March 13, 1987
Source: Commonwealth of Independent States (former USSR) (CIS)
Launch site: PLESETSK MISSILE AND SPACE COMPLEX (PKMTR)
aabbcc
Your satellite tracking list
Your tracking list is empty




NASA's NSSDC Master Catalog

Two Line Element Set (TLE):
1 17585U 87026D   17323.33602762 +.00000025 +00000-0 +77458-4 0  9996
2 17585 082.5645 053.5764 0005395 132.5962 287.1289 12.63526571415115
Source of the keplerian elements: AFSPC